Погода в Красном Яре

Россия / Пермский край     57°23′14″N   54°26′44″E
темп.,
°C
ветер,
м/с
пор.,
м/с
влажн.,
%
обл.,
%
осадки,
мм/ч
давл.,
гПа
погр.,
м
27 сентября, пн
пн2723:00+7в81481100 0.0 1013832
02:00+6в81290100 0.1 1014978
05:00+3в81494100 1.7 1016716
08:00+3в81694100 0.4 1018793
11:00+5в91570100 0.4 1018975
14:00+7в91361100 0.0 10201050
17:00+7в81354100 0.0 10221245
20:00+5всв7145739 0.0 1024683
28 сентября, вт
вт2823:00+3всв612675 0.0 1025478
02:00+2св613785 0.0 1026431
05:00+1св611845 0.0 1027412
08:000св5118999 0.0 1028471
11:00+4св6964100 0.0 10281240
14:00+7всв6750100 0.0 10281467
17:00+6всв5755100 0.0 10281352
20:00+4св2268100 0.0 102835
29 сентября, ср
ср2923:00+3ссв247691 0.0 102971
02:00+1ссв33855 0.0 102957
05:000с33915 0.0 102949
08:00−1с35925 0.0 103092
11:00+5ссв34675 0.0 1030524
14:00+7ссв33535 0.0 10301195
17:00+8ссв335012 0.0 10291368
20:00+3с22685 0.0 103015
30 сентября, чт
чт3023:00+2ссв22745 0.0 103112
02:00+1ссз22805 0.0 103110
05:000ссз118538 0.0 103210
08:00+2зсз1176100 0.0 103149
11:00+5зсз236799 0.0 1031352
14:00+9сз335693 0.0 10301329
17:00+8зсз456277 0.0 1029959
20:00+5з3578100 0.0 102979
1 октября, пт
пт123:00+6зсз378036 0.0 1028225
02:00+6з368690 0.0 1027194
05:00+6зсз3788100 0.0 1027200
08:00+6зсз3788100 0.0 1027232
11:00+8ссз4681100 0.0 1027345
14:00+10ссз4572100 0.0 1027685
17:00+10ссз3574100 0.0 1027688
20:00+8ссз2684100 0.0 1028231